Total_Precipitation_Accumulation
0.36 0.49 0.51 0.41 0.38 0.39 0.38 0.43 0.56 0.54 0.56 0.68 0.84 0.90 0.84 0.85 0.77 0.65 0.48 0.43 0.38 0.34 0.33 0.33 0.34 0.36 0.40 0.42 0.45 0.52 0.60 0.64 0.71 0.84 0.99 1.18 1.36 1.52
0.37 0.43 0.54 0.58 0.51 0.48 0.48 0.53 0.66 0.66 0.66 0.72 0.85 0.88 0.77 0.62 0.57 0.58 0.49 0.47 0.41 0.33 0.28 0.28 0.30 0.30 0.29 0.30 0.29 0.29 0.32 0.35 0.39 0.46 0.54 0.66 0.82 1.09
0.51 0.51 0.50 0.62 0.69 0.65 0.63 0.64 0.68 0.74 0.73 0.69 0.83 0.87 0.76 0.57 0.49 0.51 0.52 0.53 0.44 0.38 0.31 0.27 0.27 0.28 0.27 0.28 0.28 0.26 0.23 0.23 0.24 0.27 0.30 0.35 0.41 0.47
0.55 0.71 0.71 0.66 0.65 0.64 0.63 0.64 0.70 0.81 0.82 0.73 0.78 0.86 0.82 0.71 0.60 0.52 0.45 0.46 0.49 0.49 0.41 0.34 0.30 0.29 0.28 0.27 0.26 0.25 0.24 0.23 0.20 0.18 0.18 0.19 0.21 0.24
0.38 0.61 0.80 0.93 0.85 0.67 0.58 0.56 0.64 0.78 0.87 0.83 0.83 0.95 0.98 0.88 0.72 0.56 0.46 0.43 0.42 0.45 0.46 0.41 0.35 0.31 0.29 0.27 0.26 0.24 0.21 0.19 0.18 0.16 0.14 0.13 0.13 0.13
0.26 0.36 0.49 0.69 0.86 0.91 0.78 0.65 0.64 0.71 0.79 0.84 0.96 1.18 1.21 1.09 0.83 0.66 0.58 0.49 0.44 0.38 0.37 0.37 0.35 0.32 0.29 0.28 0.25 0.23 0.22 0.19 0.17 0.17 0.14 0.13 0.12 0.11
0.20 0.25 0.28 0.36 0.49 0.64 0.76 0.81 0.78 0.73 0.78 0.86 1.09 1.51 1.54 1.29 0.92 0.73 0.67 0.64 0.54 0.46 0.39 0.32 0.29 0.27 0.25 0.27 0.28 0.26 0.23 0.20 0.18 0.16 0.15 0.13 0.12 0.12
0.26 0.26 0.23 0.22 0.25 0.35 0.47 0.61 0.75 0.79 0.79 0.86 1.06 1.38 1.54 1.43 1.17 0.97 0.76 0.63 0.58 0.54 0.47 0.44 0.39 0.34 0.29 0.25 0.26 0.26 0.25 0.22 0.19 0.17 0.14 0.12 0.11 0.10
0.32 0.35 0.24 0.15 0.20 0.25 0.31 0.38 0.47 0.57 0.70 0.79 0.94 1.16 1.45 1.58 1.40 1.05 0.88 0.79 0.64 0.58 0.55 0.54 0.51 0.45 0.39 0.34 0.35 0.29 0.28 0.26 0.22 0.19 0.17 0.14 0.12 0.09
0.32 0.35 0.33 0.27 0.26 0.27 0.30 0.30 0.32 0.36 0.43 0.55 0.70 0.94 1.23 1.54 1.66 1.42 1.21 1.07 0.89 0.78 0.63 0.58 0.59 0.52 0.45 0.40 0.42 0.37 0.30 0.29 0.27 0.23 0.20 0.18 0.16 0.14
0.32 0.36 0.39 0.36 0.27 0.20 0.25 0.26 0.27 0.30 0.32 0.38 0.50 0.69 0.95 1.25 1.57 1.68 1.40 1.07 0.94 0.80 0.66 0.57 0.54 0.58 0.57 0.46 0.44 0.46 0.38 0.32 0.29 0.28 0.25 0.23 0.21 0.20
0.45 0.49 0.44 0.39 0.32 0.20 0.22 0.26 0.25 0.25 0.29 0.30 0.34 0.45 0.62 0.87 1.19 1.37 1.38 1.08 0.86 0.76 0.56 0.48 0.48 0.50 0.55 0.50 0.39 0.37 0.37 0.38 0.36 0.32 0.29 0.28 0.28 0.21
0.53 0.63 0.60 0.46 0.33 0.24 0.22 0.25 0.22 0.26 0.30 0.32 0.33 0.39 0.54 0.74 0.92 1.15 1.27 1.17 0.91 0.68 0.55 0.48 0.42 0.43 0.43 0.42 0.40 0.36 0.32 0.31 0.31 0.32 0.32 0.33 0.33 0.28
0.58 0.75 0.79 0.64 0.47 0.34 0.27 0.24 0.21 0.22 0.28 0.32 0.33 0.35 0.42 0.55 0.74 0.99 1.19 1.20 1.06 0.84 0.67 0.59 0.50 0.41 0.35 0.31 0.31 0.34 0.33 0.30 0.28 0.27 0.27 0.36 0.36 0.36
0.55 0.80 0.89 0.76 0.64 0.50 0.39 0.34 0.28 0.24 0.27 0.28 0.26 0.27 0.32 0.43 0.61 0.91 1.21 1.31 1.23 1.04 0.88 0.69 0.55 0.49 0.44 0.35 0.26 0.25 0.28 0.30 0.27 0.27 0.27 0.30 0.29 0.29
0.43 0.57 0.72 0.78 0.72 0.67 0.56 0.44 0.36 0.32 0.30 0.30 0.29 0.32 0.40 0.49 0.60 0.73 1.00 1.20 1.21 1.10 0.94 0.78 0.62 0.54 0.50 0.43 0.32 0.24 0.21 0.24 0.25 0.25 0.27 0.30 0.33 0.30
0.41 0.55 0.71 0.83 0.85 0.82 0.79 0.68 0.56 0.48 0.41 0.39 0.43 0.43 0.46 0.51 0.54 0.61 0.78 0.95 0.94 0.88 0.81 0.77 0.73 0.63 0.55 0.52 0.43 0.30 0.22 0.20 0.20 0.22 0.25 0.30 0.34 0.35
0.29 0.47 0.65 0.81 0.93 0.96 0.97 0.91 0.79 0.68 0.58 0.54 0.55 0.51 0.49 0.52 0.53 0.54 0.65 0.78 0.81 0.79 0.75 0.67 0.64 0.65 0.61 0.55 0.47 0.36 0.26 0.20 0.20 0.22 0.23 0.26 0.29 0.31
0.19 0.37 0.51 0.65 0.82 0.95 0.97 0.93 0.84 0.79 0.75 0.72 0.70 0.65 0.58 0.55 0.57 0.55 0.56 0.67 0.76 0.76 0.78 0.71 0.59 0.50 0.51 0.46 0.36 0.30 0.27 0.23 0.22 0.26 0.26 0.23 0.22 0.25
0.16 0.30 0.42 0.55 0.69 0.85 0.90 0.88 0.89 0.89 0.87 0.81 0.81 0.79 0.72 0.63 0.61 0.60 0.56 0.55 0.64 0.71 0.73 0.70 0.59 0.44 0.35 0.33 0.32 0.27 0.23 0.26 0.24 0.24 0.27 0.27 0.25 0.30
0.22 0.27 0.33 0.44 0.59 0.75 0.87 0.90 0.92 0.89 0.85 0.85 0.85 0.84 0.82 0.74 0.64 0.63 0.64 0.61 0.59 0.62 0.60 0.53 0.49 0.53 0.51 0.46 0.44 0.38 0.29 0.27 0.33 0.29 0.28 0.30 0.29 0.28
0.31 0.34 0.35 0.40 0.55 0.70 0.82 0.91 0.95 0.91 0.84 0.85 0.86 0.85 0.82 0.77 0.68 0.65 0.70 0.65 0.54 0.51 0.55 0.60 0.67 0.70 0.66 0.56 0.44 0.39 0.35 0.33 0.33 0.41 0.39 0.31 0.24 0.19
0.41 0.38 0.33 0.36 0.48 0.62 0.71 0.81 0.90 0.89 0.81 0.77 0.82 0.87 0.80 0.74 0.69 0.68 0.70 0.72 0.65 0.60 0.65 0.71 0.74 0.70 0.64 0.61 0.56 0.47 0.41 0.39 0.35 0.31 0.29 0.26 0.23 0.21